| time (UTC) | temp C | wind direction | speed KPH | gust KPH | rain 1hr cm | rain 24hr cm | rain mn cm | humidity % | barometer mb |
| 20260505040337 | 20 | 198 | 3.2 | 3.2 | 0.00 | 0.00 | 0.00 | 47 | 1011.1 |
| 20260505035833 | 20 | 187 | 3.2 | 3.2 | 0.00 | 0.00 | 0.00 | 47 | 1011.1 |
| 20260505035329 | 20 | 229 | 3.2 | 3.2 | 0.00 | 0.00 | 0.00 | 47 | 1011.1 |
| 20260505034827 | 20 | 272 | 1.6 | 1.6 | 0.00 | 0.00 | 0.00 | 46 | 1011.1 |
| 20260505034323 | 20 | 234 | 3.2 | 3.2 | 0.00 | 0.00 | 0.00 | 46 | 1011.0 |
| 20260505033820 | 20 | 247 | 1.6 | 3.2 | 0.00 | 0.00 | 0.00 | 46 | 1011.2 |
| 20260505033317 | 20 | 232 | 6.4 | 11.3 | 0.00 | 0.00 | 0.00 | 46 | 1011.1 |
| 20260505032815 | 20 | 241 | 1.6 | 3.2 | 0.00 | 0.00 | 0.00 | 45 | 1011.0 |
| 20260505032311 | 20 | 223 | 4.8 | 6.4 | 0.00 | 0.00 | 0.00 | 45 | 1011.0 |
| 20260505031808 | 20 | 240 | 1.6 | 3.2 | 0.00 | 0.00 | 0.00 | 45 | 1011.2 |
| 20260505031304 | 20 | 255 | 0.0 | 0.0 | 0.00 | 0.00 | 0.00 | 44 | 1011.0 |
| 20260505030802 | 20 | 277 | 1.6 | 1.6 | 0.00 | 0.00 | 0.00 | 44 | 1011.2 |
| 20260505030258 | 20 | 235 | 3.2 | 3.2 | 0.00 | 0.00 | 0.00 | 44 | 1010.8 |
| 20260505025753 | 20 | 249 | 3.2 | 6.4 | 0.00 | 0.00 | 0.00 | 44 | 1011.2 |
| 20260505025251 | 20 | 244 | 4.8 | 4.8 | 0.00 | 0.00 | 0.00 | 44 | 1010.8 |
| 20260505024749 | 20 | 244 | 3.2 | 3.2 | 0.00 | 0.00 | 0.00 | 44 | 1011.0 |
| 20260505024247 | 21 | 239 | 3.2 | 3.2 | 0.00 | 0.00 | 0.00 | 44 | 1011.2 |
| 20260505023744 | 21 | 246 | 4.8 | 6.4 | 0.00 | 0.00 | 0.00 | 43 | 1011.1 |
| 20260505023241 | 21 | 262 | 1.6 | 3.2 | 0.00 | 0.00 | 0.00 | 43 | 1011.2 |
| 20260505022738 | 21 | 171 | 3.2 | 4.8 | 0.00 | 0.00 | 0.00 | 43 | 1011.0 |
| 20260505022235 | 21 | 254 | 3.2 | 6.4 | 0.00 | 0.00 | 0.00 | 43 | 1011.1 |
| 20260505021732 | 21 | 254 | 6.4 | 6.4 | 0.00 | 0.00 | 0.00 | 43 | 1011.0 |
| 20260505021229 | 21 | 210 | 3.2 | 4.8 | 0.00 | 0.00 | 0.00 | 44 | 1010.9 |
| 20260505020724 | 21 | 166 | 3.2 | 4.8 | 0.00 | 0.00 | 0.00 | 43 | 1010.9 |
| 20260505020220 | 21 | 227 | 3.2 | 4.8 | 0.00 | 0.00 | 0.00 | 43 | 1010.9 |
| 20260505015718 | 21 | 216 | 3.2 | 3.2 | 0.00 | 0.00 | 0.00 | 43 | 1010.9 |
| 20260505015214 | 21 | 176 | 3.2 | 4.8 | 0.00 | 0.00 | 0.00 | 42 | 1010.9 |
| 20260505014711 | 21 | 231 | 6.4 | 9.7 | 0.00 | 0.00 | 0.00 | 42 | 1010.9 |
| 20260505014209 | 21 | 233 | 3.2 | 3.2 | 0.00 | 0.00 | 0.00 | 42 | 1010.8 |
| 20260505013705 | 21 | 202 | 3.2 | 4.8 | 0.00 | 0.00 | 0.00 | 42 | 1010.6 |
| 20260505013202 | 21 | 204 | 3.2 | 3.2 | 0.00 | 0.00 | 0.00 | 41 | 1010.5 |
| 20260505012701 | 21 | 212 | 4.8 | 6.4 | 0.00 | 0.00 | 0.00 | 42 | 1010.5 |
| 20260505012158 | 21 | 210 | 4.8 | 6.4 | 0.00 | 0.00 | 0.00 | 42 | 1010.4 |
| 20260505011653 | 22 | 220 | 1.6 | 3.2 | 0.00 | 0.00 | 0.00 | 42 | 1010.4 |
| 20260505011150 | 22 | 180 | 3.2 | 4.8 | 0.00 | 0.00 | 0.00 | 42 | 1010.3 |
| 20260505010646 | 22 | 218 | 1.6 | 1.6 | 0.00 | 0.00 | 0.00 | 42 | 1010.5 |
| 20260505010143 | 22 | 278 | 0.0 | 1.6 | 0.00 | 0.00 | 0.00 | 41 | 1010.4 |
| 20260505005639 | 22 | 208 | 3.2 | 3.2 | 0.00 | 0.00 | 0.00 | 40 | 1010.3 |
| 20260505005136 | 22 | 231 | 0.0 | 0.0 | 0.00 | 0.00 | 0.00 | 39 | 1010.2 |
| 20260505004633 | 22 | 116 | 1.6 | 1.6 | 0.00 | 0.00 | 0.00 | 39 | 1010.1 |
| 20260505004129 | 22 | 240 | 4.8 | 9.7 | 0.00 | 0.00 | 0.00 | 38 | 1010.1 |
| 20260505003627 | 22 | 273 | 4.8 | 6.4 | 0.00 | 0.00 | 0.00 | 38 | 1010.2 |
| 20260505003124 | 23 | 234 | 1.6 | 3.2 | 0.00 | 0.00 | 0.00 | 37 | 1010.2 |
| 20260505002620 | 23 | 166 | 0.0 | 1.6 | 0.00 | 0.00 | 0.00 | 37 | 1010.1 |
| 20260505002119 | 23 | 210 | 1.6 | 3.2 | 0.00 | 0.00 | 0.00 | 37 | 1010.2 |
| 20260505001615 | 23 | 239 | 1.6 | 1.6 | 0.00 | 0.00 | 0.00 | 36 | 1010.0 |
| 20260505001113 | 23 | 242 | 1.6 | 3.2 | 0.00 | 0.00 | 0.00 | 36 | 1010.0 |
| 20260505000610 | 23 | 239 | 0.0 | 1.6 | 0.00 | 0.00 | 0.00 | 36 | 1010.1 |
| 20260505000108 | 23 | 292 | 3.2 | 4.8 | 0.00 | 0.00 | 0.00 | 35 | 1009.9 |
| 20260504235604 | 23 | 254 | 3.2 | 3.2 | 0.00 | 0.00 | 0.00 | 35 | 1010.0 |
| 20260504235100 | 23 | 207 | 8.0 | 11.3 | 0.00 | 0.00 | 0.00 | 35 | 1010.1 |
| 20260504234557 | 23 | 121 | 3.2 | 4.8 | 0.00 | 0.00 | 0.00 | 35 | 1010.1 |
| 20260504234055 | 23 | 223 | 8.0 | 11.3 | 0.00 | 0.00 | 0.00 | 35 | 1009.9 |
| 20260504233550 | 23 | 223 | 6.4 | 11.3 | 0.00 | 0.00 | 0.00 | 34 | 1010.0 |
| 20260504233047 | 23 | 207 | 4.8 | 4.8 | 0.00 | 0.00 | 0.00 | 34 | 1009.7 |
| 20260504232544 | 23 | 254 | 3.2 | 4.8 | 0.00 | 0.00 | 0.00 | 34 | 1009.9 |
| 20260504232042 | 23 | 253 | 8.0 | 12.9 | 0.00 | 0.00 | 0.00 | 33 | 1009.9 |
| 20260504231538 | 23 | 205 | 4.8 | 9.7 | 0.00 | 0.00 | 0.00 | 33 | 1009.8 |
| 20260504231034 | 24 | 312 | 4.8 | 6.4 | 0.00 | 0.00 | 0.00 | 33 | 1009.9 |
| 20260504230530 | 24 | 200 | 8.0 | 11.3 | 0.00 | 0.00 | 0.00 | 33 | 1009.7 |
| 20260504230030 | 24 | 224 | 11.3 | 16.1 | 0.00 | 0.00 | 0.00 | 33 | 1009.9 |
| 20260504225526 | 24 | 300 | 6.4 | 9.7 | 0.00 | 0.00 | 0.00 | 32 | 1009.8 |
| 20260504225023 | 25 | 160 | 9.7 | 14.5 | 0.00 | 0.00 | 0.00 | 32 | 1009.8 |
| 20260504224520 | 24 | 254 | 4.8 | 6.4 | 0.00 | 0.00 | 0.00 | 32 | 1009.7 |
| 20260504224017 | 24 | 240 | 6.4 | 9.7 | 0.00 | 0.00 | 0.00 | 32 | 1009.9 |
| 20260504223514 | 24 | 86 | 9.7 | 16.1 | 0.00 | 0.00 | 0.00 | 32 | 1009.8 |
| 20260504223010 | 24 | 264 | 3.2 | 3.2 | 0.00 | 0.00 | 0.00 | 32 | 1009.9 |
| 20260504222506 | 24 | 167 | 9.7 | 11.3 | 0.00 | 0.00 | 0.00 | 31 | 1009.8 |
| 20260504222004 | 25 | 242 | 8.0 | 12.9 | 0.00 | 0.00 | 0.00 | 31 | 1009.9 |
| 20260504221501 | 25 | 156 | 6.4 | 9.7 | 0.00 | 0.00 | 0.00 | 30 | 1009.7 |
| 20260504220958 | 25 | 326 | 6.4 | 11.3 | 0.00 | 0.00 | 0.00 | 30 | 1009.9 |
| 20260504220454 | 25 | 263 | 11.3 | 16.1 | 0.00 | 0.00 | 0.00 | 30 | 1009.8 |
| 20260504215951 | 25 | 240 | 6.4 | 11.3 | 0.00 | 0.00 | 0.00 | 30 | 1009.8 |
| 20260504215448 | 25 | 66 | 6.4 | 11.3 | 0.00 | 0.00 | 0.00 | 30 | 1009.8 |
| 20260504214944 | 25 | 265 | 8.0 | 11.3 | 0.00 | 0.00 | 0.00 | 30 | 1009.8 |
| 20260504214441 | 25 | 214 | 3.2 | 4.8 | 0.00 | 0.00 | 0.00 | 30 | 1009.9 |
| 20260504213938 | 25 | 239 | 6.4 | 11.3 | 0.00 | 0.00 | 0.00 | 29 | 1009.8 |
| 20260504213434 | 25 | 230 | 8.0 | 11.3 | 0.00 | 0.00 | 0.00 | 30 | 1009.8 |
| 20260504212932 | 25 | 245 | 6.4 | 6.4 | 0.00 | 0.00 | 0.00 | 30 | 1009.8 |
| 20260504212427 | 24 | 163 | 4.8 | 9.7 | 0.00 | 0.00 | 0.00 | 31 | 1009.8 |
| 20260504211925 | 24 | 280 | 4.8 | 6.4 | 0.00 | 0.00 | 0.00 | 30 | 1009.8 |
| 20260504211421 | 25 | 277 | 6.4 | 9.7 | 0.00 | 0.00 | 0.00 | 29 | 1009.7 |
| 20260504210919 | 25 | 185 | 8.0 | 11.3 | 0.00 | 0.00 | 0.00 | 30 | 1009.6 |
| 20260504210415 | 25 | 178 | 9.7 | 14.5 | 0.00 | 0.00 | 0.00 | 29 | 1009.8 |
| 20260504205913 | 26 | 182 | 6.4 | 9.7 | 0.00 | 0.00 | 0.00 | 28 | 1009.8 |
| 20260504205410 | 26 | 250 | 3.2 | 3.2 | 0.00 | 0.00 | 0.00 | 28 | 1009.8 |
| 20260504204908 | 25 | 215 | 4.8 | 6.4 | 0.00 | 0.00 | 0.00 | 29 | 1009.5 |
| 20260504204406 | 25 | 293 | 9.7 | 12.9 | 0.00 | 0.00 | 0.00 | 28 | 1009.7 |
| 20260504203906 | 25 | 225 | 16.1 | 17.7 | 0.00 | 0.00 | 0.00 | 29 | 1009.9 |
| 20260504203402 | 25 | 112 | 8.0 | 16.1 | 0.00 | 0.00 | 0.00 | 29 | 1009.8 |
| 20260504202858 | 25 | 58 | 9.7 | 16.1 | 0.00 | 0.00 | 0.00 | 29 | 1010.0 |
| 20260504202355 | 25 | 212 | 9.7 | 16.1 | 0.00 | 0.00 | 0.00 | 29 | 1010.1 |
| 20260504201851 | 25 | 273 | 12.9 | 16.1 | 0.00 | 0.00 | 0.00 | 29 | 1010.1 |
| 20260504201349 | 25 | 194 | 4.8 | 6.4 | 0.00 | 0.00 | 0.00 | 28 | 1010.2 |
| 20260504200846 | 25 | 225 | 4.8 | 6.4 | 0.00 | 0.00 | 0.00 | 29 | 1010.3 |
| 20260504200343 | 25 | 240 | 6.4 | 9.7 | 0.00 | 0.00 | 0.00 | 28 | 1010.4 |
| 20260504195839 | 25 | 145 | 4.8 | 6.4 | 0.00 | 0.00 | 0.00 | 29 | 1010.3 |
| 20260504195334 | 25 | 129 | 3.2 | 4.8 | 0.00 | 0.00 | 0.00 | 29 | 1010.3 |
| 20260504194832 | 25 | 113 | 6.4 | 9.7 | 0.00 | 0.00 | 0.00 | 29 | 1010.4 |
| 20260504194328 | 25 | 225 | 6.4 | 9.7 | 0.00 | 0.00 | 0.00 | 28 | 1010.6 |
| 20260504193824 | 24 | 257 | 4.8 | 6.4 | 0.00 | 0.00 | 0.00 | 30 | 1010.8 |
| 20260504193322 | 25 | 184 | 9.7 | 12.9 | 0.00 | 0.00 | 0.00 | 29 | 1010.8 |
| 20260504192820 | 24 | 234 | 6.4 | 11.3 | 0.00 | 0.00 | 0.00 | 29 | 1010.9 |
| 20260504192318 | 25 | 177 | 3.2 | 6.4 | 0.00 | 0.00 | 0.00 | 29 | 1011.0 |
| 20260504191816 | 25 | 139 | 8.0 | 12.9 | 0.00 | 0.00 | 0.00 | 29 | 1011.0 |
| 20260504191313 | 25 | 240 | 6.4 | 6.4 | 0.00 | 0.00 | 0.00 | 29 | 1011.3 |
| 20260504190809 | 25 | 273 | 9.7 | 12.9 | 0.00 | 0.00 | 0.00 | 29 | 1011.3 |
| 20260504190305 | 25 | 256 | 1.6 | 3.2 | 0.00 | 0.00 | 0.00 | 29 | 1011.5 |
| 20260504185801 | 24 | 119 | 6.4 | 9.7 | 0.00 | 0.00 | 0.00 | 30 | 1011.5 |
| 20260504185259 | 24 | 195 | 8.0 | 14.5 | 0.00 | 0.00 | 0.00 | 29 | 1011.5 |
| 20260504184755 | 23 | 208 | 6.4 | 9.7 | 0.00 | 0.00 | 0.00 | 30 | 1011.7 |
| 20260504184250 | 24 | 228 | 8.0 | 11.3 | 0.00 | 0.00 | 0.00 | 30 | 1011.9 |
| 20260504183746 | 23 | 184 | 3.2 | 4.8 | 0.00 | 0.00 | 0.00 | 30 | 1011.7 |
| 20260504183243 | 23 | 244 | 3.2 | 3.2 | 0.00 | 0.00 | 0.00 | 31 | 1011.8 |
| 20260504182742 | 24 | 270 | 12.9 | 14.5 | 0.00 | 0.00 | 0.00 | 30 | 1012.0 |
| 20260504182238 | 23 | 167 | 6.4 | 9.7 | 0.00 | 0.00 | 0.00 | 30 | 1012.1 |
| 20260504181736 | 23 | 215 | 6.4 | 6.4 | 0.00 | 0.00 | 0.00 | 31 | 1012.3 |
| 20260504181233 | 23 | 164 | 9.7 | 12.9 | 0.00 | 0.00 | 0.00 | 30 | 1012.1 |
| 20260504180732 | 23 | 253 | 6.4 | 12.9 | 0.00 | 0.00 | 0.00 | 30 | 1012.0 |
| 20260504180231 | 23 | 249 | 6.4 | 11.3 | 0.00 | 0.00 | 0.00 | 32 | 1012.2 |
| 20260504175728 | 23 | 255 | 9.7 | 14.5 | 0.00 | 0.00 | 0.00 | 31 | 1012.5 |
| 20260504175224 | 22 | 222 | 0.0 | 1.6 | 0.00 | 0.00 | 0.00 | 33 | 1012.6 |
| 20260504174723 | 24 | 199 | 9.7 | 14.5 | 0.00 | 0.00 | 0.00 | 30 | 1012.5 |
| 20260504174220 | 23 | 254 | 3.2 | 6.4 | 0.00 | 0.00 | 0.00 | 31 | 1012.6 |
| 20260504173716 | 22 | 95 | 3.2 | 4.8 | 0.00 | 0.00 | 0.00 | 32 | 1012.5 |
| 20260504173213 | 23 | 240 | 9.7 | 14.5 | 0.00 | 0.00 | 0.00 | 32 | 1012.6 |
| 20260504172710 | 23 | 275 | 1.6 | 3.2 | 0.00 | 0.00 | 0.00 | 32 | 1012.8 |
| 20260504172206 | 22 | 302 | 6.4 | 6.4 | 0.00 | 0.00 | 0.00 | 32 | 1012.8 |
| 20260504171703 | 22 | 280 | 6.4 | 11.3 | 0.00 | 0.00 | 0.00 | 32 | 1012.9 |
| 20260504171200 | 22 | 288 | 6.4 | 6.4 | 0.00 | 0.00 | 0.00 | 32 | 1013.0 |
| 20260504170656 | 23 | 250 | 8.0 | 9.7 | 0.00 | 0.00 | 0.00 | 31 | 1013.1 |
| 20260504170154 | 22 | 261 | 4.8 | 6.4 | 0.00 | 0.00 | 0.00 | 31 | 1013.2 |
| 20260504160112 | 21 | 224 | 4.8 | 4.8 | 0.00 | 0.00 | 0.00 | 32 | 1013.8 |
| 20260504151045 | 20 | 139 | 4.8 | 4.8 | 0.00 | 0.00 | 0.00 | 33 | 1014.2 |
| 20260504150542 | 20 | 146 | 1.6 | 3.2 | 0.00 | 0.00 | 0.00 | 34 | 1014.3 |
| 20260504141008 | 18 | 207 | 4.8 | 4.8 | 0.00 | 0.00 | 0.00 | 37 | 1014.6 |
| 20260504140505 | 17 | 258 | 3.2 | 3.2 | 0.00 | 0.00 | 0.00 | 37 | 1014.5 |
| 20260504130429 | 15 | 261 | 3.2 | 6.4 | 0.00 | 0.00 | 0.00 | 46 | 1015.3 |
| 20260504110316 | 12 | 237 | 3.2 | 3.2 | 0.00 | 0.00 | 0.00 | 53 | 1015.5 |
| 20260504100234 | 12 | 222 | 3.2 | 3.2 | 0.00 | 0.00 | 0.00 | 53 | 1015.3 |
| 20260504081628 | 12 | 260 | 3.2 | 3.2 | 0.00 | 0.00 | 0.00 | 54 | 1016.1 |
| 20260504081123 | 12 | 254 | 1.6 | 1.6 | 0.00 | 0.00 | 0.00 | 54 | 1016.0 |
| 20260504080620 | 12 | 264 | 3.2 | 3.2 | 0.00 | 0.00 | 0.00 | 53 | 1015.6 |
| 20260504080117 | 12 | 230 | 1.6 | 3.2 | 0.00 | 0.00 | 0.00 | 54 | 1015.8 |
| 20260504050433 | 11 | 259 | 0.0 | 0.0 | 0.00 | 0.00 | 0.00 | 56 | 1016.2 |
| 20260504045930 | 11 | 258 | 0.0 | 0.0 | 0.00 | 0.00 | 0.00 | 55 | 1016.0 |
| 20260504045426 | 11 | 256 | 0.0 | 1.6 | 0.00 | 0.00 | 0.00 | 54 | 1016.2 |
| 20260504044922 | 12 | 257 | 0.0 | 1.6 | 0.00 | 0.00 | 0.00 | 51 | 1016.1 |
| 20260504044420 | 12 | 243 | 0.0 | 0.0 | 0.00 | 0.00 | 0.00 | 49 | 1016.2 |
| 20260504043917 | 12 | 252 | 1.6 | 3.2 | 0.00 | 0.00 | 0.00 | 49 | 1016.2 |
| 20260504043414 | 12 | 236 | 1.6 | 1.6 | 0.00 | 0.00 | 0.00 | 48 | 1016.1 |
| 20260504042911 | 12 | 236 | 1.6 | 1.6 | 0.00 | 0.00 | 0.00 | 48 | 1016.3 |
| 20260504042408 | 12 | 239 | 1.6 | 3.2 | 0.00 | 0.00 | 0.00 | 47 | 1016.0 |
| 20260504041904 | 12 | 224 | 1.6 | 1.6 | 0.00 | 0.00 | 0.00 | 46 | 1016.1 |
| 20260504041400 | 12 | 246 | 0.0 | 0.0 | 0.00 | 0.00 | 0.00 | 46 | 1016.0 |
| 20260504040856 | 12 | 248 | 1.6 | 3.2 | 0.00 | 0.00 | 0.00 | 45 | 1016.0 |
| 20260504040354 | 12 | 252 | 0.0 | 0.0 | 0.00 | 0.00 | 0.00 | 45 | 1016.0 |